MOZHAETS 4 (RS-22)

Last updated on Fri Dec 19 2025 00:03:11 GMT+0000 (Coordinated Universal Time)

1 27939U 03042A 25352.62067221 .00001312 00000+0 21242-3 0 9992 2 27939 98.3358 166.9764 0012253 118.3665 306.2828 14.72987649188968
UTC large
Height (km)
Speed (km/s)
/
Latitude / Longitude
Inclination (degrees)
Orbital Period (minutes)
Azimuth
Elevation
Range (km)
Doppler Factor

Next 0 passes for location: London (51.5072 / 0.1276)

Sorry there are no passes over London.